Location: Newark
(46.9000°N, 28.3500°E)
Time: 06:05:15
(UTC+00:00)

Explorer 7 - Pass Details

Date: 01 September 2019
Orbit: 485 x 680 km, 50.3° (Epoch: 19 September)

Event Time Altitude Azimuth Distance (km) Brightness Sun altitude
Rises 05:17:40 0° 252° (WSW) 3,029 10.1 18.2°
Reaches altitude 10° 05:20:02 10° 253° (WSW) 2,115 9.3 18.6°
Maximum altitude 05:24:58 80° 341° (NNW) 686 7.6 19.4°
Drops below altitude 10° 05:29:47 10° 69° (ENE) 2,067 10.9 20.2°
Sets 05:32:05 0° 70° (ENE) 2,955 11.6 20.6°
